Location: Comstock Ranch
(38.0499°N, 120.2627°W)
Time: 01:44:03
(UTC+00:00)

Okean 1-7 Rocket - Visible Passes

Search period start: 06 December 2024 00:00
Search period end: 16 December 2024 00:00
Orbit: 613 x 644 km, 82.5° (Epoch: 05 December)

Date Brightness Start Highest point End Pass type
(mag) Time Alt. Az. Time Alt. Az. Time Alt. Az.
06 Dec 6.1 01:50:25 10° NW 01:54:03 24° W 01:57:41 10° SW visible
06 Dec 6.3 12:44:07 10° SE 12:47:14 19° E 12:50:23 10° NE visible
06 Dec 4.3 14:21:00 10° SW 14:25:00 32° WNW 14:29:04 10° NNW visible
07 Dec 6.9 02:12:21 10° WNW 02:14:03 12° W 02:15:46 10° WSW visible
07 Dec 5.0 13:03:11 10° SSE 13:07:17 38° E 13:11:27 10° NNE visible
08 Dec 3.6 13:23:01 10° S 13:27:28 82° E 13:31:59 10° N visible
09 Dec 5.5 01:12:54 10° NNW 01:17:00 34° W 01:21:05 10° SSW visible
09 Dec 6.7 12:08:06 10° ESE 12:10:13 13° E 12:12:20 10° NE visible
09 Dec 3.8 13:43:28 10° SSW 13:47:46 47° W 13:52:08 10° N visible
10 Dec 6.6 01:34:05 10° NW 01:37:03 17° W 01:39:59 10° SW visible
10 Dec 5.6 12:26:29 10° SE 12:30:12 27° E 12:33:59 10° NNE visible
10 Dec 4.7 14:04:36 10° SW 14:08:12 24° WNW 14:11:50 10° NNW visible
11 Dec 4.2 12:45:58 10° S 12:50:19 55° E 12:54:44 10° NNE visible
11 Dec 5.4 14:27:00 10° W 14:28:45 12° WNW 14:30:31 10° NW visible
12 Dec 3.4 13:06:06 10° SSW 13:10:33 70° W 13:15:04 10° N visible
13 Dec7.011:58:22NNE11:58:22NNE11:48:51SEvisible
13 Dec6.313:35:51N13:35:51N13:25:58SSWvisible
14 Dec 6.8 01:18:13 10° WNW 01:19:58 12° W 01:21:43 10° WSW visible
